User: anonymous   Login
Location: Unspecified
(0.0000°N, 0.0000°E)
Time: 02:06:15
(UTC+00:00)
Language:

CHUBUSAT 3 - Orbit

View from above orbital plane
View from above orbital plane
View from above satellite
View from above satellite

Ground track
Ground track

The orbit data is extracted from the following two-line orbital elements,

1 41339U 16012C   18055.07963404  .00000378  00000-0  22785-4 0  9998
2 41339  31.0118 311.0056 0013461  40.1556 320.0074 15.00115799110824
Epoch (UTC): 24 February 2018 01:54:40
Eccentricity: 0.0013461
inclination: 31.0118°
perigee height: 557 km
apogee height: 576 km
right ascension of ascending node: 311.0056°
argument of perigee: 40.1556°
revolutions per day: 15.00115799
mean anomaly at epoch: 320.0074°
orbit number at epoch: 11082

The dashed part of the orbit path shows where the satellite is in the earth's shadow,  

DLR